| time (UTC) | temp F | wind direction | speed MPH | gust MPH | rain 1hr in | rain 24hr in | rain mn in | humidity % | barometer mb |
| 20260503172434 | 71 | 189 | 2.0 | 5.0 | 0.00 | 0.00 | 0.00 | 45 | 1016.4 |
| 20260503170930 | 71 | 189 | 2.0 | 5.0 | 0.00 | 0.00 | 0.00 | 45 | 1016.4 |
| 20260503151005 | 55 | 76 | 4.0 | 8.0 | 0.00 | 0.00 | 0.00 | 71 | 1018.2 |
| 20260503130938 | 52 | 47 | 3.0 | 6.0 | 0.00 | 0.00 | 0.00 | 77 | 1018.2 |
| 20260503080942 | 57 | 31 | 2.0 | 4.0 | 0.00 | 0.00 | 0.00 | 71 | 1018.9 |
| 20260503072437 | 59 | 74 | 4.0 | 9.0 | 0.00 | 0.00 | 0.00 | 67 | 1018.9 |
| 20260503070932 | 59 | 52 | 2.0 | 7.0 | 0.00 | 0.00 | 0.00 | 68 | 1018.5 |
| 20260503054025 | 62 | 50 | 2.0 | 7.0 | 0.00 | 0.00 | 0.00 | 66 | 1018.5 |
| 20260503052523 | 63 | 53 | 1.0 | 3.0 | 0.00 | 0.00 | 0.00 | 68 | 1018.2 |
| 20260503051018 | 63 | 53 | 1.0 | 3.0 | 0.00 | 0.00 | 0.00 | 68 | 1018.2 |
| 20260503045514 | 63 | 61 | 2.0 | 5.0 | 0.00 | 0.00 | 0.00 | 74 | 1018.2 |
| 20260503044012 | 63 | 81 | 1.0 | 4.0 | 0.00 | 0.00 | 0.00 | 75 | 1017.8 |
| 20260503042507 | 64 | 107 | 0.0 | 2.0 | 0.00 | 0.00 | 0.00 | 73 | 1017.8 |
| 20260503041004 | 66 | 63 | 0.0 | 2.0 | 0.00 | 0.00 | 0.00 | 70 | 1017.2 |
| 20260503035501 | 66 | 63 | 0.0 | 2.0 | 0.00 | 0.00 | 0.00 | 70 | 1017.2 |
| 20260503033958 | 68 | 265 | 1.0 | 4.0 | 0.00 | 0.00 | 0.00 | 66 | 1016.4 |
| 20260503032458 | 68 | 265 | 1.0 | 4.0 | 0.00 | 0.00 | 0.00 | 66 | 1016.4 |
| 20260503030955 | 69 | 251 | 4.0 | 11.0 | 0.00 | 0.00 | 0.00 | 63 | 1016.1 |
| 20260503025451 | 69 | 251 | 4.0 | 11.0 | 0.00 | 0.00 | 0.00 | 63 | 1016.1 |
| 20260503023948 | 71 | 241 | 4.0 | 10.0 | 0.00 | 0.00 | 0.00 | 60 | 1015.7 |
| 20260503022443 | 73 | 224 | 3.0 | 10.0 | 0.00 | 0.00 | 0.00 | 59 | 1015.4 |
| 20260503020939 | 73 | 233 | 4.0 | 16.0 | 0.00 | 0.00 | 0.00 | 57 | 1015.4 |
| 20260503015436 | 75 | 255 | 6.0 | 18.0 | 0.00 | 0.00 | 0.00 | 54 | 1015.0 |
| 20260503013933 | 75 | 255 | 6.0 | 18.0 | 0.00 | 0.00 | 0.00 | 54 | 1015.0 |
| 20260503012431 | 75 | 255 | 6.0 | 18.0 | 0.00 | 0.00 | 0.00 | 54 | 1015.0 |
| 20260503004002 | 76 | 269 | 13.0 | 23.0 | 0.00 | 0.00 | 0.00 | 51 | 1015.0 |
| 20260503002459 | 76 | 269 | 13.0 | 23.0 | 0.00 | 0.00 | 0.00 | 51 | 1015.0 |
| 20260503000955 | 76 | 269 | 13.0 | 23.0 | 0.00 | 0.00 | 0.00 | 51 | 1015.0 |
| 20260502235452 | 76 | 272 | 13.0 | 23.0 | 0.00 | 0.00 | 0.00 | 48 | 1015.4 |
| 20260502233949 | 76 | 272 | 13.0 | 23.0 | 0.00 | 0.00 | 0.00 | 48 | 1015.4 |
| 20260502232449 | 76 | 272 | 13.0 | 23.0 | 0.00 | 0.00 | 0.00 | 48 | 1015.4 |
| 20260502230947 | 76 | 272 | 10.0 | 21.0 | 0.00 | 0.00 | 0.00 | 46 | 1016.1 |
| 20260502225443 | 76 | 272 | 10.0 | 21.0 | 0.00 | 0.00 | 0.00 | 46 | 1016.1 |
| 20260502223939 | 77 | 251 | 5.0 | 11.0 | 0.00 | 0.00 | 0.00 | 47 | 1016.4 |
| 20260502222438 | 77 | 251 | 5.0 | 11.0 | 0.00 | 0.00 | 0.00 | 47 | 1016.4 |
| 20260502220933 | 73 | 250 | 5.0 | 10.0 | 0.00 | 0.00 | 0.00 | 52 | 1017.2 |
| 20260502215434 | 73 | 250 | 5.0 | 10.0 | 0.00 | 0.00 | 0.00 | 52 | 1017.2 |
| 20260502213930 | 73 | 250 | 5.0 | 10.0 | 0.00 | 0.00 | 0.00 | 52 | 1017.2 |
| 20260502195443 | 65 | 224 | 2.0 | 6.0 | 0.00 | 0.00 | 0.00 | 65 | 1018.5 |
| 20260502193938 | 65 | 224 | 2.0 | 6.0 | 0.00 | 0.00 | 0.00 | 65 | 1018.5 |
| 20260502192434 | 65 | 224 | 2.0 | 6.0 | 0.00 | 0.00 | 0.00 | 65 | 1018.5 |
| 20260502182439 | 66 | 218 | 4.0 | 11.0 | 0.00 | 0.00 | 0.00 | 57 | 1018.9 |
| 20260502180938 | 66 | 218 | 4.0 | 11.0 | 0.00 | 0.00 | 0.00 | 57 | 1018.9 |